{"data":{"norad_id":47815,"epoch":"2026-05-24T16:48:17.559072Z","epoch_age_seconds":94209,"freshness":"FRESH","line1":"1 47815U 21018AE  26144.70020323  .00004092  00000+0  14356-3 0  9997","line2":"2 47815  53.1592 249.1660 0001127  84.7516 275.3614 15.31698751288363","mean_motion":15.31698751,"eccentricity":0.0001127,"inclination_deg":53.1592,"raan_deg":249.166,"arg_perigee_deg":84.7516,"mean_anomaly_deg":275.3614,"bstar":0.00014356,"rev_number":28836,"period_min":94.013264622686,"perigee_km":469.97184957522,"apogee_km":471.51558728915,"semimajor_km":6848.8807184322,"source":"CELESTRAK","updated_at":"2026-05-25T13:38:16.602484Z"}}